Location: Rumah Long Bangan
(2.8362°N, 113.7519°E)
Time: 20:05:18
(UTC+00:00)

Sea Lan Dem Rocket - Pass Details

Date: 24 October 2021
Orbit: 552 x 35994 km, 0.6° (Epoch: 07 December)

Event Time Altitude Azimuth Distance (km) Brightness Sun altitude
Exits shadow 20:36:24 52° 201° (SSW) 730 2.3 -23.3°
Maximum altitude 20:36:43 55° 177° (S) 726 2.4 -23.2°
Drops below altitude 10° 20:41:59 10° 98° (E) 2,999 6.7 -21.9°
Sets 20:46:51 0° 94° (E) 5,404 8.4 -20.7°
